カタログに戻る

STARLINK-37614

運用中通信SSO
NORAD 69041·PAYLOAD·🇺🇸 United States

打ち上げ May 6, 2026 から Vandenberg Space Force Base

Loading…

次のパス (今後24時間)

TLE

最新Source: CelesTrak SupGP

元期: Sep 15, 2026, 03:26 UTC

1 69041C 26101S   26258.14354167 -.00024572  00000+0 -76260-3 0  2587
2 69041  97.2851 111.6778 0002290  95.3403 359.4303 15.33457068    12

AllMySatでSTARLINK-37614をリアルタイム追跡

Download on the App Store